Flag for Netherlands Weather past 2 weeks in Ede, Netherlands

Now
72 °F

Mild.


Feels Like: 72 °F
Forecast: 64 / 80 °F
Wind: 13 mph from Northeast

Location: Deelen

Current Time: Jul 22, 2014 at 11:58:59 AM

Latest Report: Jul 22, 2014 at 11:25 AM


Visibility: N/A

Pressure: 30.07 "Hg

Humidity: 78%

Dew point: 64 °F

Location of EdeLocation

Historic Weather in Ede — Graph

°F

Ede temperature yesterday

Maximum temperature yesterday: 70 °F (at 12:25 PM)
Minimum temperature yesterday: 66 °F (at 3:55 AM)
Average temperature yesterday: 67 °F

Past Weeks' High & Low Weather Summary

 TemperatureHumidityPressure
High93 °F (Jul 19, 5:25 PM)100% (Jul 8, 10:55 AM)30.18 "Hg (Jul 8, 10:55 AM)
Low54 °F (Jul 16, 5:25 AM)26% (Jul 19, 2:25 PM)29.68 "Hg (Jul 9, 2:55 PM)
Average68 °F79%29.93 "Hg
* Reported Jul 7 10:25 AM — Jul 22 10:55 AM, Ede, Weather by CustomWeather, © 2014

Note: Actual official high and low records may vary slightly from our data, if they occured in-between our weather recording intervals... More about our weather records

Advertising

Ede weather history for previous 24 hours

 ConditionsComfort  
Time TempWeatherWind HumidityBarometerVisibility
10:55 AM
Jul 22
72 °FMild.10 mph73%30.07 "HgN/A
10:25 AM72 °FMild.13 mph78%30.07 "HgN/A
9:55 AM70 °FPassing clouds.10 mph78%30.07 "HgN/A
9:25 AM68 °FScattered clouds.9 mph83%30.07 "HgN/A
8:55 AM66 °FOvercast.8 mph88%30.07 "HgN/A
8:25 AM66 °FHigh level clouds.9 mph88%30.04 "HgN/A
7:55 AM66 °FOvercast.9 mph88%30.04 "HgN/A
7:25 AM66 °FOvercast.9 mph88%30.04 "HgN/A
6:55 AM64 °FOvercast.5 mph94%30.04 "HgN/A
6:25 AM64 °FFog.6 mph94%30.04 "Hg5 mi
5:55 AM64 °FMostly cloudy.5 mph94%30.01 "HgN/A
5:25 AM64 °FFog.5 mph100%30.01 "Hg6 mi
4:55 AM64 °FFog.6 mph100%30.01 "Hg6 mi
4:25 AM66 °FFog.5 mph94%30.01 "Hg5 mi
3:55 AM66 °FFog.5 mph94%30.01 "Hg4 mi
3:25 AM66 °FFog.3 mph94%30.01 "Hg3 mi
2:55 AM66 °FThunderstorms. Fog.2 mph94%30.01 "Hg3 mi
2:25 AM66 °FFog.5 mph94%30.01 "Hg3 mi
1:55 AM66 °FThunderstorms. Mostly cloudy.5 mph100%30.01 "Hg2 mi
1:25 AM66 °FFog.7 mph94%30.01 "Hg4 mi
12:55 AM66 °FFog.7 mph94%30.01 "Hg4 mi
12:25 AM66 °FFog.9 mph94%29.98 "Hg4 mi
11:55 PM
Jul 21
66 °FFog.9 mph100%29.98 "Hg4 mi
11:25 PM66 °FFog.9 mph100%29.98 "Hg4 mi
10:55 PM66 °FFog.9 mph100%29.98 "Hg4 mi
10:25 PM66 °FFog.8 mph100%29.98 "Hg3 mi
9:55 PM66 °FDrizzle. Broken clouds.8 mph100%29.98 "Hg2 mi
9:25 PM66 °FFog.7 mph94%29.98 "Hg3 mi
8:55 PM66 °FFog.7 mph94%29.98 "Hg6 mi
8:25 PM66 °FDrizzle. Overcast.7 mph94%29.98 "HgN/A
7:55 PM66 °FOvercast.9 mph94%29.98 "HgN/A
7:25 PM66 °FDrizzle. Overcast.8 mph94%29.95 "Hg4 mi
6:55 PM68 °FLow clouds.10 mph88%29.95 "HgN/A
6:25 PM68 °FBroken clouds.8 mph94%29.95 "HgN/A
5:55 PM68 °FPartly sunny.3 mph100%29.95 "HgN/A
5:25 PM66 °FRain. Broken clouds.8 mph100%29.95 "Hg4 mi
4:55 PM68 °FBroken clouds.8 mph94%29.95 "HgN/A
4:25 PM68 °FPartly sunny.7 mph94%29.95 "HgN/A
3:55 PM66 °FDrizzle. Partly sunny.7 mph100%29.95 "HgN/A
3:25 PM66 °FHeavy rain. Broken clouds.7 mph100%29.95 "Hg2 mi
2:55 PM66 °FDrizzle. Partly sunny.7 mph100%29.95 "Hg4 mi
2:25 PM70 °FMostly cloudy.10 mph88%29.92 "HgN/A
1:55 PM70 °FBroken clouds.7 mph88%29.92 "HgN/A
1:25 PM70 °FCloudy.7 mph88%29.92 "HgN/A
12:55 PM70 °FBroken clouds.5 mph88%29.92 "HgN/A
12:25 PM70 °FBroken clouds.6 mph88%29.92 "HgN/A
11:55 AM68 °FFog.6 mph94%29.92 "Hg4 mi
11:25 AM66 °FDrizzle. Broken clouds.6 mph100%29.92 "Hg5 mi
Weather by CustomWeather, © 2014

See weather overviewHow to use our weather pages